SB KEPS @ AMSAT $ORB11034.O Orbital Elements 11034.OSCAR
HR AMSAT ORBITAL ELEMENTS FOR OSCAR SATELLITES FROM WA5QGD FORT WORTH,TX February 3, 2011 Send Subscribe/unsubscribe to KEPS at http://www.amsat.org/mailman/listinfo/keps BID: ORB11034.O TO ALL RADIO AMATEURS BT
Satellite: AO-07 Catalog number: 07530 Epoch time: 11034.64058427 Element set: 995 Inclination: 101.3954 deg RA of node: 046.4472 deg Eccentricity: 0.0011710 Arg of perigee: 180.5526 deg Mean anomaly: 179.5534 deg Mean motion: 12.53580959 rev/day Decay rate: -2.7e-07 rev/day^2 Epoch rev: 65745 Checksum: 306
Satellite: FO-29 Catalog number: 24278 Epoch time: 11034.49865149 Element set: 499 Inclination: 098.5238 deg RA of node: 196.7771 deg Eccentricity: 0.0349858 Arg of perigee: 243.7677 deg Mean anomaly: 112.7107 deg Mean motion: 13.52957339 rev/day Decay rate: 4.1e-07 rev/day^2 Epoch rev: 71438 Checksum: 362
Satellite: SO-33 Catalog number: 25509 Epoch time: 11034.74440838 Element set: 896 Inclination: 031.4331 deg RA of node: 279.0310 deg Eccentricity: 0.0353824 Arg of perigee: 154.7432 deg Mean anomaly: 207.0920 deg Mean motion: 14.28364777 rev/day Decay rate: 2.12e-06 rev/day^2 Epoch rev: 64118 Checksum: 289
Satellite: RS-22 Catalog number: 27939 Epoch time: 11034.63175773 Element set: 957 Inclination: 097.8626 deg RA of node: 254.8808 deg Eccentricity: 0.0014588 Arg of perigee: 049.9520 deg Mean anomaly: 310.2952 deg Mean motion: 14.63505740 rev/day Decay rate: 1.06e-06 rev/day^2 Epoch rev: 39280 Checksum: 327
Satellite: VO-52 Catalog number: 28650 Epoch time: 11034.47626988 Element set: 709 Inclination: 097.6616 deg RA of node: 083.4821 deg Eccentricity: 0.0025859 Arg of perigee: 238.4949 deg Mean anomaly: 121.3738 deg Mean motion: 14.81899194 rev/day Decay rate: -6.3e-07 rev/day^2 Epoch rev: 31094 Checksum: 349
Satellite: SO-67 Catalog number: 35870 Epoch time: 11034.74801853 Element set: 528 Inclination: 097.3015 deg RA of node: 082.3616 deg Eccentricity: 0.0003688 Arg of perigee: 031.4626 deg Mean anomaly: 104.0960 deg Mean motion: 15.21315104 rev/day Decay rate: 5.35e-06 rev/day^2 Epoch rev: 7665 Checksum: 284
Satellite: HO-68 Catalog number: 36122 Epoch time: 11034.76874753 Element set: 79 Inclination: 100.4359 deg RA of node: 097.5095 deg Eccentricity: 0.0007706 Arg of perigee: 166.0966 deg Mean anomaly: 194.0353 deg Mean motion: 13.16283796 rev/day Decay rate: -4.5e-07 rev/day^2 Epoch rev: 5468 Checksum: 326
/EX SB KEPS @ AMSAT $ORB11034.D Orbital Elements 11034.MICROS
HR AMSAT ORBITAL ELEMENTS FOR THE MICROSATS FROM WA5QGD FORT WORTH,TX February 3, 2011 Send Subscribe/unsubscribe to KEPS at http://www.amsat.org/mailman/listinfo/keps BID: ORB11034.D TO ALL RADIO AMATEURS BT
Satellite: UO-11 Catalog number: 14781 Epoch time: 11033.65931356 Element set: 0462 Inclination: 098.0241 deg RA of node: 090.6761 deg Eccentricity: 0.0008469 Arg of perigee: 207.8674 deg Mean anomaly: 152.2098 deg Mean motion: 14.79885663 rev/day Decay rate: 3.81e-06 rev/day^2 Epoch rev: 44589 Checksum: 331
Satellite: AO-16 Catalog number: 20439 Epoch time: 11034.76650161 Element set: 109 Inclination: 098.3661 deg RA of node: 348.9654 deg Eccentricity: 0.0010433 Arg of perigee: 195.5838 deg Mean anomaly: 164.5029 deg Mean motion: 14.31893663 rev/day Decay rate: 1.3e-07 rev/day^2 Epoch rev: 9852 Checksum: 308
Satellite: LO-19 Catalog number: 20442 Epoch time: 11034.79715182 Element set: 17 Inclination: 098.3282 deg RA of node: 353.8672 deg Eccentricity: 0.0011675 Arg of perigee: 188.8382 deg Mean anomaly: 171.2608 deg Mean motion: 14.32121678 rev/day Decay rate: 9.0e-08 rev/day^2 Epoch rev: 9870 Checksum: 308
Satellite: AO-27 Catalog number: 22825 Epoch time: 11033.39557180 Element set: 0741 Inclination: 098.5154 deg RA of node: 340.7373 deg Eccentricity: 0.0008020 Arg of perigee: 317.0680 deg Mean anomaly: 042.9865 deg Mean motion: 14.29324762 rev/day Decay rate: -6.8e-07 rev/day^2 Epoch rev: 90493 Checksum: 305
Satellite: IO-26 Catalog number: 22826 Epoch time: 11034.81938939 Element set: 478 Inclination: 098.5100 deg RA of node: 342.6480 deg Eccentricity: 0.0008417 Arg of perigee: 307.6973 deg Mean anomaly: 052.3452 deg Mean motion: 14.29584371 rev/day Decay rate: -.00000000 rev/day^2 Epoch rev: 90525 Checksum: 301
Satellite: GO-32 Catalog number: 25397 Epoch time: 11034.61532579 Element set: 398 Inclination: 098.3183 deg RA of node: 034.3711 deg Eccentricity: 0.0000976 Arg of perigee: 357.2324 deg Mean anomaly: 002.8865 deg Mean motion: 14.23195459 rev/day Decay rate: -4.0e-08 rev/day^2 Epoch rev: 65296 Checksum: 314
Satellite: NO-44 Catalog number: 26931 Epoch time: 11033.93130491 Element set: 0672 Inclination: 067.0546 deg RA of node: 329.4590 deg Eccentricity: 0.0006964 Arg of perigee: 270.6775 deg Mean anomaly: 089.3524 deg Mean motion: 14.29630506 rev/day Decay rate: -2.95e-06 rev/day^2 Epoch rev: 48773 Checksum: 324
Satellite: SO-50 Catalog number: 27607 Epoch time: 11033.45174328 Element set: 0382 Inclination: 064.5588 deg RA of node: 017.0516 deg Eccentricity: 0.0057670 Arg of perigee: 353.1850 deg Mean anomaly: 006.8475 deg Mean motion: 14.71636410 rev/day Decay rate: -4.0e-08 rev/day^2 Epoch rev: 43626 Checksum: 289
Satellite: CO-55 Catalog number: 27844 Epoch time: 11034.58432524 Element set: 37 Inclination: 098.7084 deg RA of node: 045.2202 deg Eccentricity: 0.0009121 Arg of perigee: 222.1556 deg Mean anomaly: 137.8914 deg Mean motion: 14.20765172 rev/day Decay rate: 4.6e-07 rev/day^2 Epoch rev: 39394 Checksum: 291
Satellite: CO-57 Catalog number: 27848 Epoch time: 11033.52118630 Element set: 983 Inclination: 098.7139 deg RA of node: 043.3195 deg Eccentricity: 0.0009112 Arg of perigee: 229.9931 deg Mean anomaly: 130.0451 deg Mean motion: 14.20550644 rev/day Decay rate: 2.2e-07 rev/day^2 Epoch rev: 39374 Checksum: 291
Satellite: AO-51 Catalog number: 28375 Epoch time: 11034.90735998 Element set: 887 Inclination: 098.0823 deg RA of node: 020.4681 deg Eccentricity: 0.0084515 Arg of perigee: 113.6413 deg Mean anomaly: 247.3674 deg Mean motion: 14.40722014 rev/day Decay rate: 2.4e-07 rev/day^2 Epoch rev: 34687 Checksum: 309
Satellite: CP3 Catalog number: 31129 Epoch time: 11033.88060077 Element set: 0790 Inclination: 097.9133 deg RA of node: 065.7774 deg Eccentricity: 0.0101364 Arg of perigee: 237.7858 deg Mean anomaly: 121.3435 deg Mean motion: 14.52369160 rev/day Decay rate: -2.9e-07 rev/day^2 Epoch rev: 20134 Checksum: 290
Satellite: CO-65 Catalog number: 32785 Epoch time: 11034.72332092 Element set: 905 Inclination: 097.8671 deg RA of node: 101.0805 deg Eccentricity: 0.0013820 Arg of perigee: 250.1768 deg Mean anomaly: 109.7958 deg Mean motion: 14.81816180 rev/day Decay rate: -5.1e-07 rev/day^2 Epoch rev: 14977 Checksum: 306
Satellite: KKS-1 Catalog number: 33493 Epoch time: 11034.76953689 Element set: 276 Inclination: 098.1063 deg RA of node: 161.6311 deg Eccentricity: 0.0021041 Arg of perigee: 111.5676 deg Mean anomaly: 248.7788 deg Mean motion: 14.81303621 rev/day Decay rate: 4.43e-06 rev/day^2 Epoch rev: 10976 Checksum: 298
Satellite: SOHLA-1 Catalog number: 33496 Epoch time: 11034.80358071 Element set: 324 Inclination: 098.0686 deg RA of node: 146.0902 deg Eccentricity: 0.0006602 Arg of perigee: 178.6219 deg Mean anomaly: 181.5017 deg Mean motion: 14.69551803 rev/day Decay rate: -4.1e-07 rev/day^2 Epoch rev: 10889 Checksum: 291
Satellite: TISAT-1 Catalog number: 36799 Epoch time: 11034.78453067 Element set: 550 Inclination: 098.1191 deg RA of node: 101.6421 deg Eccentricity: 0.0015259 Arg of perigee: 352.7711 deg Mean anomaly: 007.3267 deg Mean motion: 14.80302866 rev/day Decay rate: 2.53e-06 rev/day^2 Epoch rev: 3057 Checksum: 284
Satellite: STUDSAT Catalog number: 36801 Epoch time: 11033.76736081 Element set: 0134 Inclination: 098.1248 deg RA of node: 100.4729 deg Eccentricity: 0.0013824 Arg of perigee: 344.0181 deg Mean anomaly: 016.0590 deg Mean motion: 14.79973531 rev/day Decay rate: 7.03e-06 rev/day^2 Epoch rev: 03041 Checksum: 263
Satellite: RAX Catalog number: 37223 Epoch time: 11032.44671713 Element set: 0070 Inclination: 071.9746 deg RA of node: 338.3080 deg Eccentricity: 0.0021458 Arg of perigee: 184.2321 deg Mean anomaly: 175.8663 deg Mean motion: 14.77226199 rev/day Decay rate: 2.06e-06 rev/day^2 Epoch rev: 01084 Checksum: 278
Satellite: OOREOS Catalog number: 37224 Epoch time: 11031.44731873 Element set: 0071 Inclination: 071.9747 deg RA of node: 340.6006 deg Eccentricity: 0.0020047 Arg of perigee: 184.3247 deg Mean anomaly: 175.7744 deg Mean motion: 14.76886093 rev/day Decay rate: 1.23e-06 rev/day^2 Epoch rev: 01068 Checksum: 282
Satellite: NANOSALD Catalog number: 37225 Epoch time: 11029.15737677 Element set: 0014 Inclination: 071.9741 deg RA of node: 345.7226 deg Eccentricity: 0.0018614 Arg of perigee: 180.5975 deg Mean anomaly: 179.5130 deg Mean motion: 14.77379680 rev/day Decay rate: 2.0319e-04 rev/day^2 Epoch rev: 00145 Checksum: 303
Satellite: FAST1-2 Catalog number: 37227 Epoch time: 11034.45260292 Element set: 0068 Inclination: 071.9744 deg RA of node: 334.0929 deg Eccentricity: 0.0017316 Arg of perigee: 175.6076 deg Mean anomaly: 184.5273 deg Mean motion: 14.76388212 rev/day Decay rate: 7.9e-07 rev/day^2 Epoch rev: 01112 Checksum: 293
/EX SB KEPS @ AMSAT $ORB11034.W Orbital Elements 11034.WEATHER
HR AMSAT ORBITAL ELEMENTS FOR WEATHER SATELLITES FROM WA5QGD FORT WORTH,TX February 3, 2011 Send Subscribe/unsubscribe to KEPS at http://www.amsat.org/mailman/listinfo/keps BID: ORB11034.W TO ALL RADIO AMATEURS BT
Satellite: NOAA-10 Catalog number: 16969 Epoch time: 11034.11866538 Element set: 382 Inclination: 098.6343 deg RA of node: 065.6363 deg Eccentricity: 0.0011498 Arg of perigee: 256.7219 deg Mean anomaly: 103.2702 deg Mean motion: 14.27442654 rev/day Decay rate: 5.7e-07 rev/day^2 Epoch rev: 26852 Checksum: 309
